Overview Statistics Trail Chart Weather Telemetry Raw packets
 

This is the latest recevied weather packets stored in our database for station/object I1SXT-13. If no packets are shown the sender has not sent any weather packets the latest 10 day(s).

<< 3 4 5 6 7 8 9 >>
Time Temp. Humidity Pressure Rain* Wind** Luminosity Snow
1788404664 20.56° C 86% 1021.6 hPa 0 mm - - -
1788404368 20° C 87% 1022.2 hPa 0 mm - - -
1788404064 20° C 86% 1021.8 hPa 0 mm - - -
1788402263 20.56° C 85% 1021.8 hPa 0 mm - - -
1788400467 21.11° C 82% 1021.6 hPa 0 mm - - -
1788399866 21.67° C 79% 1021.5 hPa 0 mm - - -
1788398968 21.67° C 81% 1021.3 hPa 0 mm - - -
1788398664 21.67° C 80% 1021.6 hPa 0 mm - - -
1788395065 21.67° C 81% 1021.4 hPa 0 mm - - -
1788393562 21.67° C 85% 1021.3 hPa 0 mm - - -
1788392961 22.22° C 84% 1021.7 hPa 0 mm - - -
1788392068 22.78° C 83% 1021.9 hPa 0 mm - - -
1788391182 22.78° C 80% 1021.9 hPa 0 mm - - -
1788388164 23.33° C 84% 1021.8 hPa 0 mm - - -
1788387863 23.33° C 85% 1021.8 hPa 0 mm - - -
1788386065 23.89° C 84% 1021.7 hPa 0 mm - - -
1788385163 23.89° C 85% 1021.6 hPa 0 mm - - -
1788384863 23.89° C 86% 1021.8 hPa 0 mm - - -
1788383066 23.89° C 86% 1022.3 hPa 0 mm - - -
1788382165 23.89° C 86% 1022.2 hPa 0 mm - - -
1788381865 23.89° C 86% 1021.7 hPa 0 mm - - -
1788381263 23.89° C 87% 1021.6 hPa 0 mm - - -
1788378264 23.89° C 88% 1022.1 hPa 0 mm - - -
1788377967 23.89° C 89% 1021.6 hPa 0 mm - - -
1788375863 23.33° C 90% 1021.4 hPa 0 mm - - -

* Rain since midnight (hover to see other rain measurements)
** Current wind speed in m/s (hover to see current wind gust speed)